Tracking 20241 objects as of 28-Jan-2020
HD Live streaming from Space Station
objects crossing your sky now

ERS 1

Track ERS 1 now!
10-day predictions
ERS 1 is classified as:


NORAD ID: 21574
Int'l Code: 1991-050A
Perigee: 749.7 km
Apogee: 796.6 km
Inclination: 98.6 °
Period: 100.2 minutes
Semi major axis: 7144 km
RCS: 11.0086 m2 (large)
Launch date: July 17, 1991
Source: European Space Agency (ESA)
Launch site: FRENCH GUIANA (FRGUI)
aabbcc
Your satellite tracking list
Your tracking list is empty




NASA's NSSDC Master Catalog

Two Line Element Set (TLE):
1 21574U 91050A   20028.48957148  .00000014  00000-0  19317-4 0  9992
2 21574  98.5802 341.9455 0032836 348.7319  11.3129 14.37727281494849
Source of the keplerian elements: AFSPC